Location: Lanoux
(43.1180°N, 1.4255°E)
Time: 06:37:20
(UTC+00:00)

Aureole 1 Rocket - Pass Details

Date: 13 December 2025
Orbit: 372 x 1168 km, 73.9° (Epoch: 13 January)

Event Time Altitude Azimuth Distance (km) Brightness Sun altitude
Rises 17:45:14 0° 199° (SSW) 2,741 6.9 -15.0°
Reaches altitude 10° 17:47:12 10° 200° (SSW) 1,953 6.1 -15.4°
Maximum altitude 17:51:36 88° 287° (WNW) 721 3.3 -16.1°
Drops below altitude 10° 17:57:16 10° 20° (NNE) 2,495 5.8 -17.1°
Enters shadow 17:57:20 10° 20° (NNE) 2,522 5.8 -17.1°
